Terminal Aerodrome Forecast
Issued by NWS Wakefield, VA

Home | Current Version | Previous Version | Text Only | Print | Product List | Glossary On
Versions: 1 2 3 4 5 6 7 8 9 10 11 12 13 14 15
000
FTUS41 KAKQ 230550 RRA
TAFORF
TAF
KORF 230550Z 2306/2406 22012KT P6SM SKC
     FM231500 25007KT P6SM SCT200
     FM231800 29006KT P6SM BKN120
     FM232000 35007KT P6SM VCSH BKN100
     FM232200 01008KT P6SM SHRA BKN070
     FM240400 03004KT P6SM BKN060=

USA.gov is the U.S. government's official web portal to all federal, state and local government web resources and services.